McCook, NE

5:21 PM CST on December 18, 2017 (GMT -0600)
McCook Municipal

Weather History for KMCK - March, 2013

Change the Weather History Date:

Wednesday, March 27, 2013

  Actual Average Record
Temperature  
Mean Temperature 44 °F 43 °F  
Max Temperature 59 °F 58 °F 89 °F (1988)
Min Temperature 28 °F 28 °F 1 °F (1931)
Degree Days  
Heating Degree Days 22    
Moisture  
Dew Point 27 °F    
Average Humidity 58    
Maximum Humidity 85    
Minimum Humidity 31    
Precipitation  
Precipitation 0.00 in 0.05 in 0.78 in (1949)
Month to date precipitation 0.26 1.15  
Year to date precipitation 1.43 2.28  
Sea Level Pressure  
Sea Level Pressure 30.13 in    
Wind  
Wind Speed 6 mph (East)    
Max Wind Speed 9 mph    
Max Gust Speed -    
Visibility 10 miles    
Events      
T = Trace of Precipitation, MM = Missing Value Source: NWS Daily Summary

Daily Weather History Graph

Daily Weather History Graph

Search for Another Location

Airport or City:

Trip Planner

Search our weather history database for the weather conditions in past years. The results will help you decide how hot, cold, wet, or windy it might be!

Date:

Astronomy

Mar. 27, 2013 Rise Set
Actual Time 7:33 AM CDT 8:01 PM CDT
Civil Twilight 7:06 AM CDT 8:29 PM CDT
Nautical Twilight 6:34 AM CDT 9:01 PM CDT
Astronomical Twilight 6:01 AM CDT 9:34 PM CDT
Moon 8:47 PM CDT (3/27) 7:25 AM CDT (3/27)
Length of Visible Light 13h 22m
Length of Day
12h 28m
Full, 100% of the Moon is Illuminated
Mar 27
Full
Apr 2
Last Quarter
Apr 10
New
Apr 18
First Quarter
Apr 25
Full

Hourly Weather History & Observations

Time (CDT) Temp. Windchill Dew Point Humidity Pressure Visibility Wind Dir Wind Speed Gust Speed Precip Events Conditions
12:53 AM 35.1 °F 27.9 °F 26.1 °F 70% 30.12 in 10.0 mi East 9.2 mph - N/A   Partly Cloudy
1:53 AM 34.0 °F 27.2 °F 26.1 °F 73% 30.11 in 10.0 mi ESE 8.1 mph - N/A   Mostly Cloudy
2:53 AM 33.1 °F 26.9 °F 26.1 °F 75% 30.10 in 10.0 mi ESE 6.9 mph - N/A   Overcast
3:53 AM 33.1 °F 26.1 °F 26.1 °F 75% 30.07 in 10.0 mi East 8.1 mph - N/A   Overcast
4:53 AM 33.1 °F - 26.1 °F 75% 30.08 in 10.0 mi Calm Calm - N/A   Overcast
5:53 AM 33.1 °F - 26.1 °F 75% 30.07 in 10.0 mi Calm Calm - N/A   Overcast
6:53 AM 28.0 °F 24.2 °F 24.1 °F 85% 30.10 in 9.0 mi North 3.5 mph - N/A   Scattered Clouds
7:53 AM 30.0 °F 25.2 °F 25.0 °F 82% 30.12 in 8.0 mi NNE 4.6 mph - N/A   Overcast
8:53 AM 34.0 °F 27.2 °F 27.0 °F 75% 30.14 in 9.0 mi NNE 8.1 mph - N/A   Clear
9:53 AM 37.0 °F - 25.0 °F 62% 30.16 in 10.0 mi Calm Calm - N/A   Clear
10:53 AM 37.9 °F - 25.0 °F 60% 30.16 in 10.0 mi Calm Calm - N/A   Clear
11:53 AM 43.0 °F 41.3 °F 27.0 °F 53% 30.16 in 10.0 mi WSW 3.5 mph - N/A   Clear
12:53 PM 48.0 °F - 28.0 °F 46% 30.15 in 10.0 mi Variable 3.5 mph - N/A   Clear
1:53 PM 51.1 °F - 27.0 °F 39% 30.13 in 10.0 mi East 4.6 mph - N/A   Clear
2:53 PM 54.0 °F - 27.0 °F 35% 30.12 in 10.0 mi East 5.8 mph - N/A   Clear
3:53 PM 55.9 °F - 28.0 °F 34% 30.10 in 10.0 mi Variable 3.5 mph - N/A   Clear
4:53 PM 55.9 °F - 27.0 °F 33% 30.10 in 10.0 mi West 4.6 mph - N/A   Clear
5:53 PM 57.9 °F - 27.0 °F 31% 30.10 in 10.0 mi Calm Calm - N/A   Clear
6:53 PM 55.9 °F - 28.0 °F 34% 30.12 in 10.0 mi Variable 4.6 mph - N/A   Clear
7:53 PM 50.0 °F - 30.0 °F 46% 30.14 in 10.0 mi ESE 8.1 mph - N/A   Clear
8:53 PM 45.0 °F 40.6 °F 30.0 °F 56% 30.15 in 10.0 mi SE 8.1 mph - N/A   Clear
9:53 PM 42.1 °F 37.7 °F 30.0 °F 62% 30.17 in 10.0 mi SE 6.9 mph - N/A   Clear
10:53 PM 42.1 °F 37.1 °F 28.9 °F 60% 30.19 in 10.0 mi SE 8.1 mph - N/A   Clear
11:53 PM 41.0 °F 39.0 °F 28.9 °F 62% 30.19 in 10.0 mi ESE 3.5 mph - N/A   Clear